Dewpoint
73 70 71 72 74 73 71 68 59 62 61 53 53 53 51 56 54 54 54 55 55 56 58 57 57 59 60 60 61 61 61 60 60 54 54 67 71 72 72 72 73 72 72 73 74 75 76 76 77 76 76 76 77 77 77 77 77 77 77 77 77 77 78 78 78 78 78 78 78 78 78 77 77 77 77 76 76 76 76 76 76 77 77 77 76 76 76 75 75 75 75 75 75 75 75 74 75
70 71 72 73 74 72 66 68 60 56 56 54 50 52 54 55 55 54 53 56 55 57 57 57 58 58 59 59 60 62 62 64 65 65 68 70 71 72 72 72 72 71 72 73 74 74 75 76 77 77 76 76 77 78 77 77 77 77 77 77 77 77 77 78 78 78 78 78 78 78 78 77 77 77 76 76 76 76 76 77 76 76 77 76 76 76 76 76 75 75 76 75 75 75 75 74 75
70 70 76 74 72 70 67 67 56 51 49 54 53 53 55 53 52 54 55 54 57 57 57 57 57 58 58 60 60 61 61 65 65 67 68 70 69 71 71 71 71 72 72 73 74 74 75 76 77 77 76 76 77 77 77 77 77 77 77 77 77 77 77 77 78 78 78 78 78 78 77 77 77 76 76 76 76 76 76 76 76 76 76 76 76 76 76 76 76 75 75 75 75 75 75 75 75
70 71 73 71 69 69 64 61 58 53 49 53 51 54 54 54 53 53 53 54 57 57 57 57 58 59 61 60 61 62 64 65 66 67 68 68 69 71 71 71 73 72 72 73 74 74 74 76 76 77 77 76 77 77 77 76 77 77 77 77 77 77 77 77 78 78 78 77 77 77 77 77 77 76 76 76 76 76 76 76 76 76 76 76 76 76 76 76 76 75 75 75 75 75 74 75 75
70 72 72 70 68 61 62 59 56 55 49 58 51 53 54 53 52 52 53 53 54 55 57 59 58 59 62 62 63 60 62 66 66 67 68 69 71 71 70 72 72 71 72 73 74 74 74 77 77 76 76 76 76 76 76 76 76 77 77 77 77 77 77 77 77 78 78 78 77 77 77 77 77 77 76 76 76 76 76 76 75 75 76 76 76 76 76 76 76 75 75 75 75 74 74 75 75
69 70 75 71 65 67 63 58 56 49 51 53 52 53 54 53 53 52 53 53 55 57 57 58 58 59 60 61 64 62 64 64 66 68 68 69 70 70 71 72 70 71 72 73 73 74 75 76 77 77 76 76 76 76 76 76 76 76 76 76 76 77 77 77 77 77 77 77 77 78 76 77 76 77 76 76 76 76 75 76 75 75 76 76 77 76 76 76 76 75 75 75 75 74 75 74 75
71 70 71 69 67 67 58 56 53 52 50 54 53 54 54 54 54 53 53 55 57 56 57 57 59 60 60 61 65 68 65 66 67 67 68 69 70 70 71 70 70 72 73 73 73 75 75 77 77 77 76 76 76 76 76 76 76 76 76 76 76 76 77 77 77 77 77 77 77 77 77 76 77 77 76 76 76 76 76 75 75 75 76 76 76 76 76 75 75 75 75 74 74 74 74 74 75
73 65 68 63 60 62 58 55 50 53 52 55 54 54 56 54 53 53 53 53 54 57 56 57 59 60 61 65 63 66 65 66 67 68 69 69 70 71 71 70 71 72 73 73 74 75 77 76 76 76 77 76 76 76 76 76 76 76 76 76 76 76 76 76 76 76 76 76 76 76 77 77 78 78 77 76 76 76 76 76 76 76 76 76 76 76 75 75 75 75 74 75 74 74 74 74 75
73 68 70 63 58 59 58 56 52 55 54 55 55 59 57 55 53 53 51 52 55 54 54 55 58 59 60 63 63 67 64 66 68 70 69 70 70 70 71 72 72 73 75 75 73 75 76 77 77 77 76 76 76 76 76 76 76 76 76 76 76 76 76 76 76 76 76 75 76 76 76 76 76 76 77 77 77 77 78 77 77 77 77 76 76 76 75 75 75 75 74 74 74 74 74 74 75
73 71 62 61 60 55 55 52 51 51 52 54 55 56 56 54 53 52 51 56 54 55 54 56 58 59 62 61 62 64 64 68 68 69 68 70 69 70 72 72 73 73 74 74 74 75 76 76 77 77 76 76 76 76 76 76 76 76 76 76 76 76 76 76 76 76 75 76 76 76 76 76 75 75 75 76 76 76 76 76 76 76 75 75 75 75 76 76 75 75 75 75 75 74 74 74 75
66 69 65 59 56 54 54 57 55 52 54 56 56 57 55 54 52 52 53 53 57 54 55 56 56 57 60 62 63 63 65 67 67 67 68 68 69 69 70 71 71 73 73 74 74 74 75 76 77 76 77 77 76 76 76 76 76 76 76 76 76 76 76 76 76 75 75 75 76 75 75 75 75 75 75 75 75 75 75 75 76 75 74 74 74 74 76 76 75 75 75 75 75 75 74 75 75
62 64 63 57 56 56 58 57 57 54 55 55 55 58 56 53 51 50 51 51 51 53 56 59 58 61 60 60 61 62 62 65 65 67 68 67 67 68 69 70 72 72 72 73 74 74 75 76 76 76 76 76 76 76 76 76 76 75 76 76 76 76 76 76 76 76 75 75 75 75 75 75 75 75 75 74 74 74 74 75 75 74 74 73 73 74 75 76 75 75 75 75 75 74 75 75 75
62 62 60 54 55 61 59 57 60 54 54 53 55 58 55 54 54 51 51 51 51 52 53 58 58 58 59 61 63 63 63 63 66 66 65 65 67 70 71 71 70 72 72 74 74 74 74 74 75 75 75 75 75 75 76 76 76 75 75 76 76 76 76 76 76 76 75 75 75 75 75 75 75 74 75 75 74 74 74 74 74 74 74 72 73 74 75 76 76 75 76 75 75 75 75 75 76
63 63 60 60 64 59 60 59 56 55 52 55 56 58 57 54 52 52 52 51 52 52 55 56 58 62 60 61 61 63 64 65 65 67 68 67 66 69 72 72 71 72 73 74 73 73 74 74 74 74 75 75 75 75 76 76 76 76 76 76 75 76 76 76 76 75 75 76 75 75 75 75 75 75 75 75 75 74 74 74 74 74 74 73 74 74 75 76 76 76 75 75 75 76 76 76 76
63 66 62 61 59 59 59 57 55 57 51 56 57 58 56 55 53 54 53 51 51 53 56 57 60 60 58 59 59 62 65 69 70 70 69 68 69 69 71 72 71 71 71 72 72 72 72 73 73 74 75 74 75 75 76 75 75 76 75 75 75 75 75 76 76 76 76 76 75 76 75 75 75 75 75 74 74 74 74 74 74 74 74 74 74 74 75 76 76 76 76 76 76 76 76 76 77
67 64 65 60 60 55 54 54 59 57 50 54 55 55 56 53 54 54 55 54 51 53 54 56 58 57 59 59 61 61 62 67 70 69 67 67 69 69 72 70 68 70 71 71 71 71 73 73 73 73 74 74 75 74 75 75 76 76 75 75 75 75 75 76 76 76 75 75 75 75 75 75 75 75 76 74 75 75 75 75 74 74 74 74 74 74 76 76 76 76 76 76 76 77 77 77 77
68 68 59 57 56 56 56 55 57 59 52 54 54 55 54 53 55 56 55 53 52 53 53 53 52 57 59 60 61 61 64 66 67 66 65 67 69 70 71 68 67 69 71 71 70 71 72 73 73 73 74 73 74 74 74 75 75 76 75 75 75 75 75 75 75 76 75 75 74 75 75 75 76 76 75 74 75 75 75 75 74 74 74 75 75 75 76 76 77 77 77 76 77 77 77 78 78
69 60 58 55 54 55 59 58 58 58 57 51 55 57 54 54 54 52 54 53 52 53 53 56 57 58 59 61 62 63 64 64 65 65 66 66 66 66 64 65 65 68 70 69 71 70 71 72 73 73 73 73 73 74 74 75 75 76 76 75 75 75 75 74 75 76 75 75 74 75 76 75 77 77 76 75 75 75 74 74 75 75 75 75 75 75 77 76 77 77 77 77 77 77 78 76 75
61 57 55 56 55 56 63 63 62 60 56 53 56 55 53 52 54 53 53 51 51 50 54 58 59 60 61 62 62 63 63 64 65 66 66 64 65 63 64 65 64 65 67 69 70 70 72 72 72 72 73 73 74 74 74 75 75 76 76 76 75 75 75 74 75 75 75 76 76 76 77 76 75 76 76 76 76 75 74 75 75 75 75 75 75 76 77 77 77 77 77 77 77 78 77 76 75
60 56 55 55 59 58 63 65 64 63 61 60 52 53 53 51 52 53 55 51 51 51 53 57 58 59 60 60 61 62 62 61 62 63 62 62 63 62 63 63 64 65 65 66 67 70 70 71 71 72 73 73 74 74 74 75 75 75 74 74 75 75 75 75 76 75 75 75 75 76 75 75 75 77 76 75 75 75 75 75 75 75 75 76 76 76 77 77 77 77 77 78 78 76 74 73 74
58 56 55 56 60 57 62 65 63 61 63 62 53 52 51 52 52 53 52 52 54 52 53 55 57 59 60 60 60 60 60 60 59 62 62 62 63 64 64 64 64 65 65 65 67 68 68 69 69 71 72 72 74 74 74 73 74 73 74 74 74 74 74 74 74 74 75 75 75 75 74 74 74 75 75 75 76 75 75 75 75 75 75 75 75 75 75 74 76 75 75 76 76 75 73 74 74
58 58 60 60 60 58 59 62 61 62 62 60 53 54 50 52 52 52 54 53 51 51 54 56 58 59 59 60 59 59 59 59 59 60 61 63 62 64 65 63 64 65 66 65 66 66 68 68 69 71 71 72 73 72 73 73 74 73 73 74 73 74 74 74 74 74 74 75 75 74 74 74 75 75 75 75 75 75 75 74 74 74 75 73 73 73 74 75 75 75 74 74 75 73 73 67 63
59 59 61 61 61 60 60 61 60 62 63 63 59 57 57 51 52 54 53 50 51 52 54 56 58 59 60 59 59 58 58 58 57 57 60 61 62 61 63 63 63 64 66 65 65 66 67 68 70 71 71 72 73 73 73 73 73 73 73 74 73 73 74 74 74 74 74 75 74 75 74 75 75 75 75 75 75 74 74 75 75 74 74 74 73 73 72 75 74 72 72 70 69 67 57 71 68
59 56 59 61 65 63 62 61 60 59 64 64 63 61 61 53 55 55 53 49 49 52 55 56 57 59 59 58 58 57 57 57 57 57 58 62 62 62 62 64 63 64 66 65 66 66 68 67 70 70 71 72 73 74 73 72 73 73 72 74 73 74 74 74 74 75 75 74 75 76 75 75 75 75 74 75 75 74 74 75 75 75 75 74 73 72 72 73 70 70 72 68 63 61 62 57 56
59 58 61 60 64 63 61 60 56 63 62 62 63 63 62 60 59 51 56 56 50 52 55 56 57 58 58 58 58 57 57 57 56 58 59 61 61 61 63 64 63 64 64 66 65 65 66 70 69 70 71 72 72 72 72 72 73 73 73 73 73 76 74 75 75 75 74 74 74 75 75 75 75 75 74 75 76 75 74 75 75 75 74 75 73 72 71 71 69 68 72 70 66 63 61 58 64
56 58 60 63 63 62 60 63 64 61 64 65 64 62 62 62 62 58 56 54 50 52 54 55 56 56 57 58 58 58 57 58 58 58 60 60 60 60 61 61 64 63 64 65 65 66 66 68 68 69 70 70 72 72 72 72 73 73 73 74 74 75 74 75 75 74 75 75 74 75 75 75 76 75 76 76 75 74 74 74 75 74 74 75 73 70 70 69 69 66 68 65 59 61 63 71 63
57 58 62 63 62 63 62 62 64 62 65 65 62 61 63 60 61 59 58 54 51 51 52 55 55 55 56 56 57 58 58 58 59 59 59 60 60 60 60 59 61 63 64 63 64 65 67 67 68 70 70 73 72 70 72 72 74 73 73 74 74 74 75 75 75 74 74 75 75 76 76 76 76 76 76 75 75 74 74 74 75 75 73 73 72 69 69 67 66 71 60 60 65 63 73 69 65
55 57 58 60 59 63 63 64 64 63 64 65 64 63 63 62 58 60 55 54 52 50 51 54 54 55 55 56 57 58 58 59 58 58 58 59 59 59 60 61 60 59 61 61 63 64 66 66 67 69 69 70 72 71 73 72 73 73 74 74 74 74 76 75 75 75 76 76 75 75 76 76 76 77 74 74 75 75 75 75 72 73 73 71 71 69 67 70 71 63 62 69 70 70 75 70 68
53 53 54 55 57 57 57 57 58 61 62 64 64 61 59 59 56 56 54 54 55 52 51 52 54 55 55 56 56 58 58 58 58 57 58 59 59 59 59 60 60 59 60 61 63 64 64 65 66 68 68 70 72 72 71 72 72 72 73 73 74 74 75 75 74 74 76 76 75 74 76 76 76 75 74 73 75 75 74 75 75 73 71 71 68 68 65 76 71 73 70 74 73 72 65 67 57
53 56 53 55 54 55 57 58 58 56 63 64 64 52 51 55 56 57 57 60 61 57 53 50 53 54 55 55 56 56 57 57 57 57 58 59 59 59 59 59 60 59 60 61 62 63 64 64 66 68 69 70 71 72 72 72 72 73 73 73 74 74 74 73 74 75 75 75 74 75 75 75 75 75 75 74 76 75 74 74 73 72 72 70 73 71 71 74 71 71 69 73 72 68 61 65 67
52 55 54 48 48 49 55 57 56 56 62 63 60 54 51 57 58 59 58 62 61 58 57 50 51 53 54 55 56 56 56 58 56 57 58 59 59 59 59 59 59 58 61 62 63 63 63 64 66 66 68 69 69 72 71 73 72 72 72 73 73 73 73 73 72 72 73 74 73 75 74 75 74 75 74 73 75 75 73 71 73 70 69 74 71 75 71 70 68 68 68 63 65 66 61 71 58
53 50 48 48 51 47 53 56 55 55 60 59 59 52 49 53 55 59 59 63 62 60 59 58 50 52 53 55 56 56 57 57 57 57 57 59 59 59 59 59 59 59 59 61 62 64 63 64 66 64 67 68 69 72 71 73 71 72 73 74 73 73 73 71 71 72 73 76 73 74 75 75 74 76 75 75 71 71 70 69 72 72 74 73 73 70 76 69 71 67 65 65 61 55 67 63 66
49 50 47 46 48 49 50 53 57 57 59 60 59 51 52 54 55 57 60 62 59 62 61 58 56 50 52 53 55 56 57 57 57 57 58 59 60 59 60 60 58 60 60 60 61 62 62 64 66 64 66 67 68 69 71 73 71 71 71 71 71 73 71 70 71 72 72 74 75 73 73 75 74 76 77 76 73 70 70 68 65 68 71 68 70 73 71 70 71 59 74 72 68 78 60 57 64
47 44 43 48 44 45 44 50 56 55 56 55 55 52 51 52 52 54 57 59 61 59 61 61 60 49 52 53 53 54 57 57 57 57 57 59 60 60 60 64 59 61 60 60 60 62 60 64 65 64 65 66 68 69 72 71 70 73 71 70 72 69 68 70 69 69 72 71 72 73 74 74 75 75 76 76 76 72 73 70 69 70 71 70 76 71 72 71 69 70 74 76 70 70 72 67 60
39 42 43 45 43 43 44 45 50 50 52 52 51 51 50 51 54 54 54 57 60 59 63 62 59 54 52 51 53 54 55 57 56 58 57 58 59 59 60 61 60 61 60 60 59 63 60 64 64 68 65 66 67 71 73 72 70 72 68 68 68 70 71 70 70 72 76 73 74 73 76 72 75 75 75 76 77 74 72 73 74 72 69 74 73 70 69 71 66 71 66 74 75 76 69 68 66
36 40 36 43 42 42 43 46 51 48 48 52 50 49 48 51 54 55 55 56 59 61 61 64 63 60 54 51 51 53 55 55 56 57 58 58 59 59 60 61 59 62 60 62 63 63 64 63 64 68 67 65 68 69 71 70 69 70 67 67 67 69 69 68 70 73 71 77 72 71 74 74 75 76 76 76 77 74 70 71 74 68 71 74 70 67 65 70 70 69 70 59 70 71 71 67 64
37 40 40 41 43 41 46 46 52 52 53 48 47 46 47 49 52 53 52 53 54 61 60 61 63 62 61 50 50 53 54 54 56 57 57 58 59 60 60 62 60 62 60 62 61 62 63 63 66 67 67 67 69 69 70 68 68 70 69 65 64 64 68 66 67 70 71 73 71 70 73 71 75 75 76 76 75 75 75 75 74 73 72 73 73 72 67 67 71 73 76 75 67 68 64 58 54
33 32 34 37 36 40 45 46 51 55 48 47 50 48 48 49 50 52 53 52 52 56 59 59 60 63 62 62 51 52 54 54 55 56 57 58 58 59 60 61 62 62 62 62 61 62 64 62 65 65 66 68 68 68 69 67 69 69 67 66 64 63 66 66 66 67 71 71 71 73 73 71 74 75 76 76 76 75 75 73 73 74 71 75 73 74 74 75 77 71 69 73 71 66 67 59 59
32 32 34 36 45 38 42 44 39 48 46 41 45 43 45 45 49 52 54 52 52 52 58 59 60 63 65 62 59 52 53 54 55 54 57 57 58 58 60 61 60 61 60 62 61 62 64 64 68 69 67 68 68 69 70 69 69 70 67 67 66 63 62 64 63 65 65 68 69 71 70 74 74 74 74 75 74 72 73 75 72 75 71 74 77 75 77 74 76 69 72 73 65 60 63 58 69
30 30 32 40 37 32 44 42 41 52 43 39 42 35 39 47 51 52 55 54 55 53 54 62 62 61 61 60 62 51 52 54 54 55 55 55 58 58 60 61 61 62 63 63 61 62 63 68 69 70 69 68 70 71 71 68 69 72 73 70 69 69 70 65 67 66 66 67 69 69 71 75 73 71 71 69 71 71 75 75 71 72 72 78 74 75 75 73 74 75 68 67 71 63 58 54 57
28 28 30 32 33 35 30 41 42 47 43 41 37 40 38 51 48 49 54 56 57 56 51 61 62 61 61 64 60 60 58 52 54 54 55 55 57 57 60 61 61 61 62 63 62 62 61 65 68 70 70 69 70 72 72 72 73 73 73 73 72 73 71 71 65 64 65 68 68 69 67 72 72 70 69 70 70 74 76 76 76 74 70 76 69 74 77 67 67 69 68 74 71 65 58 64 66
26 27 29 30 32 32 28 28 36 36 38 45 40 35 39 44 50 50 54 55 53 53 54 59 60 61 61 62 64 63 59 59 55 54 54 55 56 58 60 60 60 61 62 63 63 64 63 65 67 70 70 70 69 71 73 73 73 74 72 74 73 70 71 67 64 63 63 64 66 68 69 69 70 70 68 68 68 70 74 75 76 75 69 76 70 68 67 66 69 65 66 65 61 70 68 64 58
25 27 29 28 28 29 28 19 21 24 29 47 40 32 34 39 44 52 53 53 54 55 53 52 56 60 59 63 65 65 61 58 54 54 54 54 56 57 59 59 60 61 62 62 62 63 63 65 67 68 71 71 69 72 73 75 74 72 70 67 67 68 69 69 69 64 64 63 65 67 69 70 70 69 69 69 69 74 74 76 77 76 72 71 73 72 70 63 59 59 62 62 61 73 72 66 65
22 26 27 27 29 26 23 22 19 26 33 45 35 32 32 32 36 49 54 52 53 56 54 54 56 57 56 62 61 64 61 60 55 56 55 55 57 57 58 59 59 60 61 61 62 63 65 69 69 71 72 72 70 72 73 74 74 74 73 70 69 68 65 69 69 69 66 71 70 66 66 68 70 69 70 73 72 72 75 74 77 76 75 69 69 69 66 62 62 61 65 67 80 82 77 78 71
18 24 25 26 26 26 24 21 23 25 24 34 31 31 34 32 41 47 46 46 53 55 55 54 54 54 54 60 58 60 60 60 57 55 56 55 56 57 58 58 59 59 60 62 63 63 63 66 71 71 71 73 71 73 73 73 75 75 73 70 71 70 68 67 70 71 73 70 68 68 68 66 69 70 70 70 74 73 75 75 75 75 74 73 73 67 65 63 63 66 76 79 73 80 73 71 77
22 21 24 26 25 25 25 24 25 33 28 28 28 28 32 35 37 36 45 50 51 55 56 55 53 54 55 53 58 58 58 59 56 54 59 57 56 57 58 58 60 58 60 63 64 70 71 67 71 71 72 72 72 74 73 74 75 75 74 73 71 71 70 73 70 71 72 76 71 72 72 75 65 68 68 72 73 74 74 75 72 70 71 68 70 68 68 68 68 71 71 72 71 73 77 73 73
23 23 23 24 25 27 26 29 32 32 30 31 28 26 30 29 33 32 36 38 52 52 56 55 54 54 56 54 54 56 56 58 57 56 55 56 56 59 61 61 62 61 62 62 62 66 66 68 71 72 73 72 72 74 74 74 74 74 73 74 73 72 71 72 73 74 72 73 71 66 69 70 67 65 65 68 70 70 72 73 70 69 69 71 72 69 70 65 63 63 61 70 74 76 75 75 69
18 20 23 24 26 26 29 30 33 28 28 29 28 26 25 26 30 38 33 32 33 51 54 57 55 53 54 54 52 55 56 57 56 56 55 54 59 59 60 60 60 62 66 64 61 63 67 69 72 73 74 74 73 73 74 73 73 73 74 74 73 73 72 68 71 71 70 70 69 69 71 72 70 65 67 66 66 67 70 71 72 69 71 69 69 69 68 66 65 64 65 73 72 75 76 74 71
17 18 22 22 26 31 26 29 29 28 27 29 26 25 31 26 29 28 30 29 32 49 52 55 55 52 54 53 52 55 55 55 56 56 55 55 57 59 59 60 61 66 66 63 62 64 65 70 71 73 74 75 75 74 74 75 74 73 73 73 73 74 73 73 72 72 70 70 69 68 73 74 73 71 68 64 64 65 69 71 70 70 71 71 72 73 71 72 73 67 70 66 68 74 73 73 72
17 18 20 23 24 25 25 26 28 28 27 28 25 31 29 29 28 29 26 29 46 47 53 53 53 55 55 54 53 50 55 54 55 56 56 56 57 57 61 62 63 63 63 62 63 64 65 68 73 73 75 75 76 75 75 75 74 74 74 73 73 74 74 71 70 69 70 70 70 70 66 66 70 67 65 67 65 64 65 67 70 71 74 75 76 76 75 74 74 72 70 72 67 73 74 73 73
18 18 18 22 25 23 27 25 24 29 26 26 30 24 29 27 31 31 30 29 48 46 46 52 56 56 57 56 53 51 51 54 55 57 56 57 58 59 62 63 62 62 60 62 63 65 67 71 72 75 76 76 76 76 76 75 74 74 74 73 73 72 71 71 71 70 70 69 68 67 68 65 66 67 67 69 70 70 66 68 68 68 70 73 75 75 68 72 77 75 75 76 73 71 72 71 70
17 19 18 18 21 25 22 30 24 23 26 28 30 26 30 30 33 29 32 26 28 31 55 55 55 54 56 55 54 51 49 50 52 54 55 57 58 60 62 62 61 61 63 64 62 67 68 70 72 75 76 76 76 76 76 75 75 73 75 74 73 74 74 71 73 74 73 71 69 69 69 71 67 69 69 70 67 69 71 67 69 67 70 71 72 73 72 70 75 73 75 75 74 68 72 71 71
15 16 18 17 20 20 24 23 20 21 21 24 25 27 25 28 25 23 28 29 28 32 38 46 55 51 53 52 51 49 50 48 51 51 53 59 59 60 58 60 64 63 63 65 67 66 70 72 73 76 77 76 76 76 75 76 75 75 74 73 72 73 72 70 69 69 68 69 70 69 67 66 66 73 68 69 67 70 70 69 67 63 69 70 71 72 69 72 75 73 70 75 73 70 72 72 71
13 18 19 20 19 20 24 21 32 22 20 31 25 21 20 22 25 24 25 28 28 44 38 38 53 50 53 50 51 52 49 48 54 52 58 59 59 59 58 58 60 62 62 63 68 66 71 72 74 75 77 76 76 76 75 75 75 73 74 74 73 72 71 70 68 67 67 68 69 70 69 68 66 65 67 65 67 67 71 72 69 69 68 67 68 67 69 70 74 72 71 75 72 74 73 73 72
11 16 21 18 27 20 23 20 19 34 25 25 22 20 26 25 30 19 24 25 28 42 45 42 50 43 45 48 51 53 52 53 57 54 59 59 60 59 60 57 55 59 65 63 65 66 70 72 74 76 76 77 77 75 75 74 74 73 73 73 72 72 71 71 70 70 68 67 67 66 67 68 66 68 69 72 70 66 68 69 72 68 67 71 70 68 71 72 73 72 71 71 73 75 75 74 73
11 13 15 18 24 22 23 20 23 24 20 21 23 19 21 19 21 16 20 29 31 35 35 41 36 55 48 46 43 48 56 58 58 54 52 53 59 59 61 63 61 62 64 64 69 70 69 72 75 77 78 78 76 75 75 74 74 72 73 74 73 73 73 71 70 70 69 68 67 66 66 66 66 66 67 69 67 66 66 66 65 65 62 62 64 65 67 70 71 70 68 67 70 74 73 73 71
10 10 12 16 18 20 20 22 20 19 22 24 24 30 28 36 28 24 28 31 31 32 37 44 42 44 52 54 50 53 57 58 57 53 57 52 54 57 56 62 68 62 63 66 66 67 68 73 74 76 77 77 76 76 76 75 74 74 73 73 73 73 71 71 69 69 69 68 67 67 66 67 69 67 68 66 67 70 71 68 66 66 63 66 71 68 67 69 71 70 69 70 71 74 73 72 73
11 9 10 13 18 20 21 33 23 21 22 27 23 27 28 27 21 39 44 44 40 40 40 41 40 53 57 60 55 58 62 59 62 55 52 52 61 57 56 58 67 69 65 68 67 71 70 73 75 76 78 78 76 76 75 76 75 73 72 73 72 72 72 71 69 68 69 69 68 67 66 72 70 72 70 67 69 66 66 67 66 66 67 64 68 71 66 66 67 70 69 64 65 71 74 72 72